New Bedford, MA

3:44 AM EDT on September 27, 2016 (GMT -0400)
New Bedford Regional

Weather History for KEWB - October, 2012

Change the Weather History Date:

Monday, October 1, 2012

  Actual Average Record
Temperature  
Mean Temperature 60 °F -  
Max Temperature 70 °F 68 °F 84 °F (1968)
Min Temperature 50 °F 52 °F 32 °F (1992)
Degree Days  
Heating Degree Days 6    
Growing Degree Days 10 (Base 50)    
Moisture  
Dew Point 50 °F    
Average Humidity 74    
Maximum Humidity 93    
Minimum Humidity 52    
Precipitation  
Precipitation 0.00 in - - ()
Sea Level Pressure  
Sea Level Pressure 29.82 in    
Wind  
Wind Speed 8 mph (WSW)    
Max Wind Speed 20 mph    
Max Gust Speed 30 mph    
Visibility 10 miles    
Events      
Averages and records for this station are not official NWS values.
T = Trace of Precipitation, MM = Missing Value Source: NWS Daily Summary

Daily Weather History Graph

Daily Weather History Graph

Search for Another Location

Airport or City:

Trip Planner

Search our weather history database for the weather conditions in past years. The results will help you decide how hot, cold, wet, or windy it might be!

Date:

Astronomy

Oct. 01, 2012 Rise Set
Actual Time 6:41 AM EDT 6:24 PM EDT
Civil Twilight 6:13 AM EDT 6:52 PM EDT
Nautical Twilight 5:41 AM EDT 7:24 PM EDT
Astronomical Twilight 5:08 AM EDT 7:57 PM EDT
Moon 6:57 PM EDT (10/1) 8:09 AM EDT (10/1)
Length of Visible Light 12h 38m
Length of Day
11h 43m
Full, 98% of the Moon is Illuminated
Oct 1
Full
Oct 8
Last Quarter
Oct 15
New
Oct 21
First Quarter
Oct 29
Full

Hourly Weather History & Observations

Time (EDT) Temp. Dew Point Humidity Pressure Visibility Wind Dir Wind Speed Gust Speed Precip Events Conditions
12:53 AM 55.0 °F 51.1 °F 86% 29.75 in 10.0 mi SW 5.8 mph - N/A   Partly Cloudy
1:53 AM 53.1 °F 48.0 °F 83% 29.75 in 10.0 mi SW 6.9 mph - N/A   Clear
2:53 AM 51.1 °F 46.9 °F 86% 29.75 in 10.0 mi WSW 8.1 mph - N/A   Clear
3:53 AM 51.1 °F 46.9 °F 86% 29.75 in 10.0 mi SW 6.9 mph - N/A   Clear
4:53 AM 50.0 °F 46.0 °F 86% 29.76 in 10.0 mi West 5.8 mph - N/A   Clear
5:53 AM 50.0 °F 46.0 °F 86% 29.77 in 10.0 mi WSW 4.6 mph - N/A   Clear
6:53 AM 50.0 °F 46.9 °F 89% 29.77 in 10.0 mi WSW 5.8 mph - N/A   Clear
7:53 AM 53.6 °F 48.2 °F 82% 29.78 in 10.0 mi WSW 6.9 mph - N/A   Clear
8:53 AM 57.9 °F 48.9 °F 72% 29.79 in 10.0 mi WSW 9.2 mph 18.4 mph N/A   Clear
9:53 AM 61.0 °F 48.9 °F 64% 29.78 in 10.0 mi WSW 13.8 mph 20.7 mph N/A   Clear
10:53 AM 64.4 °F 48.2 °F 56% 29.78 in 10.0 mi WSW 19.6 mph 29.9 mph N/A   Clear
11:53 AM 66.0 °F 48.9 °F 54% 29.78 in 10.0 mi WSW 15.0 mph 25.3 mph N/A   Clear
12:53 PM 66.9 °F 50.0 °F 54% 29.78 in 10.0 mi WSW 17.3 mph 21.9 mph N/A   Clear
1:53 PM 68.0 °F 50.0 °F 52% 29.78 in 10.0 mi West 16.1 mph 29.9 mph N/A   Partly Cloudy
2:53 PM 69.8 °F 51.8 °F 53% 29.78 in 10.0 mi West 13.8 mph - N/A   Clear
3:53 PM 69.1 °F 51.1 °F 53% 29.79 in 10.0 mi West 11.5 mph - N/A   Partly Cloudy
4:53 PM 69.8 °F 51.8 °F 53% 29.82 in 10.0 mi WSW 9.2 mph - N/A   Clear
5:53 PM 64.9 °F 52.0 °F 63% 29.85 in 10.0 mi WSW 5.8 mph - N/A   Partly Cloudy
6:53 PM 62.1 °F 52.0 °F 70% 29.88 in 10.0 mi WSW 5.8 mph - N/A   Scattered Clouds
7:53 PM 59.0 °F 52.0 °F 78% 29.91 in 10.0 mi WSW 4.6 mph - N/A   Clear
8:53 PM 55.9 °F 52.0 °F 87% 29.93 in 10.0 mi Calm Calm - N/A   Clear
9:53 PM 53.1 °F 51.1 °F 93% 29.94 in 10.0 mi SW 5.8 mph - N/A   Clear
10:53 PM 55.4 °F 51.8 °F 88% 29.95 in 10.0 mi WSW 4.6 mph - N/A   Clear
11:53 PM 54.0 °F 51.1 °F 90% 29.95 in 10.0 mi West 3.5 mph - N/A   Clear